EW9819 Pawcatuck CT US current weather conditions

sailwx.info

Wind from 059

Air temperature 22.2° C
Dewpoint 21.9° C

Last reported at 2020-Jul-10 10:00 UTC.
Time now 2020-Jul-10 10:55 UTC

Location: N 41°22' W 071°52'.
View on Google Maps.

See reports from other nearby stations

  
Tides and Currents Weather Stations Pressure Air Temp Water Temp Dewpoint Dewpoint Depression Visibility Wind Speed Wind Dir Waves Ship Positions
date/time (UTC)wind fromknots sea level pressurealtimeterstation pressurevisibilityair tempwater tempwave heightnotes
2020-Jul-10 10:00 059 22.2
2020-Jul-10 09:45 053 1 gusting 4 21.7
2020-Jul-10 09:32 067 21.7
2020-Jul-10 09:16 067 21.7
2020-Jul-10 09:01 063 21.7
2020-Jul-10 08:47 076 21.7
2020-Jul-10 08:31 076 21.7
2020-Jul-10 08:16 190 21.7
2020-Jul-10 08:01 182 21.7
2020-Jul-10 07:46 182 21.7
2020-Jul-10 07:32 182 21.7
2020-Jul-10 07:16 182 21.7
2020-Jul-10 07:01 182 21.7
2020-Jul-10 06:46 183 21.7
2020-Jul-10 06:31 186 21.7
2020-Jul-10 06:16 194 21.1
2020-Jul-10 06:01 194 21.1
2020-Jul-10 05:46 194 21.1
2020-Jul-10 05:31 194 20.6
2020-Jul-10 05:16 194 20.6
2020-Jul-10 05:02 194 21.1
2020-Jul-10 04:45 194 21.1
2020-Jul-10 04:32 194 21.1
2020-Jul-10 04:16 194 21.1
2020-Jul-10 04:01 194 21.1
2020-Jul-10 03:45 194 21.7
2020-Jul-10 03:31 194 21.7
2020-Jul-10 03:18 194 21.7
2020-Jul-10 03:01 194 21.7
2020-Jul-10 02:46 194 22.2
2020-Jul-10 02:31 194 22.2
2020-Jul-10 02:16 194 22.2
2020-Jul-10 02:00 193 22.8
2020-Jul-10 01:46 194 22.8
2020-Jul-10 01:30 194 22.8
2020-Jul-10 01:15 194 23.3
2020-Jul-10 01:00 193 23.3
2020-Jul-10 00:46 193 23.9
2020-Jul-10 00:30 193 23.9
2020-Jul-10 00:16 193 24.4
2020-Jul-10 00:01 169 24.4
2020-Jul-09 23:46 170 0 gusting 4 25.0
2020-Jul-09 23:30 167 25.6
2020-Jul-09 23:15 096 25.6
2020-Jul-09 23:00 134 1 gusting 6 26.1
2020-Jul-09 22:47 128 3 gusting 6 26.7
2020-Jul-09 22:31 146 0 gusting 4 26.7
2020-Jul-09 22:16 172 1 gusting 7 26.7
2020-Jul-09 22:01 201 3 gusting 7 26.7
2020-Jul-09 21:45 148 0 gusting 6 27.2
2020-Jul-09 21:30 101 0 gusting 6 27.2
2020-Jul-09 21:15 182 3 gusting 6 27.8
2020-Jul-09 21:01 297 2 gusting 8 27.8
2020-Jul-09 20:45 143 1 gusting 6 27.8
2020-Jul-09 20:30 223 3 gusting 7 28.3
2020-Jul-09 20:16 179 3 gusting 6 28.3
2020-Jul-09 20:00 200 2 gusting 6 28.3
2020-Jul-09 19:45 247 2 gusting 8 28.3
2020-Jul-09 19:30 078 2 gusting 8 28.3
2020-Jul-09 19:15 221 1 gusting 7 28.3
2020-Jul-09 19:00 283 2 gusting 6 28.3
2020-Jul-09 18:45 171 2 gusting 9 28.3
2020-Jul-09 18:30 244 1 gusting 11 28.3
2020-Jul-09 18:15 128 2 gusting 8 27.8
2020-Jul-09 18:00 229 2 gusting 6 27.8
2020-Jul-09 17:45 291 1 gusting 6 27.8
2020-Jul-09 17:30 238 3 gusting 7 27.2
2020-Jul-09 17:15 150 4 gusting 9 27.2
2020-Jul-09 17:00 182 4 gusting 8 27.2
2020-Jul-09 16:46 213 3 gusting 7 26.7
2020-Jul-09 16:31 236 0 gusting 9 27.2
2020-Jul-09 16:17 231 2 gusting 5 26.7
2020-Jul-09 16:01 205 2 gusting 5 26.7
2020-Jul-09 15:46 065 2 gusting 6 26.1
2020-Jul-09 15:31 117 2 gusting 6 26.1
2020-Jul-09 15:16 210 2 gusting 7 26.1
2020-Jul-09 15:02 166 2 gusting 9 26.1
2020-Jul-09 14:46 142 0 gusting 7 26.1
2020-Jul-09 14:32 171 1 gusting 6 25.6
2020-Jul-09 14:16 234 25.6
2020-Jul-09 14:02 103 0 gusting 6 25.0
2020-Jul-09 13:45 196 0 gusting 4 25.0
2020-Jul-09 13:31 229 0 gusting 5 24.4
2020-Jul-09 13:16 237 1 gusting 4 23.9
2020-Jul-09 13:01 240 0 gusting 4 23.9
2020-Jul-09 12:45 215 0 gusting 3 23.3
2020-Jul-09 12:30 252 23.3
2020-Jul-09 12:15 199 22.8
2020-Jul-09 12:00 180 22.8
2020-Jul-09 11:46 192 0 gusting 5 22.8
2020-Jul-09 11:30 184 22.8
2020-Jul-09 11:15 182 0 gusting 1 22.2
2020-Jul-09 11:00 182 0 gusting 5 22.2
2020-Jul-09 10:45 244 22.2
2020-Jul-09 10:30 244 22.2
2020-Jul-09 10:15 187 22.2
2020-Jul-09 10:00 187 22.2
2020-Jul-09 09:45 188 22.2
2020-Jul-09 09:30 194 22.2
2020-Jul-09 09:15 175 22.2
2020-Jul-09 09:00 205 22.2
2020-Jul-09 08:45 205 22.2
2020-Jul-09 08:30 205 22.2
2020-Jul-09 08:15 205 22.2
2020-Jul-09 08:00 205 22.2
2020-Jul-09 07:47 205 22.2
2020-Jul-09 07:31 210 22.2
2020-Jul-09 07:19 202 22.2
2020-Jul-09 07:02 205 22.2
2020-Jul-09 06:47 204 22.2
2020-Jul-09 06:33 199 22.2
2020-Jul-09 06:16 175 22.2
2020-Jul-09 06:02 194 22.2
2020-Jul-09 05:47 228 22.2
2020-Jul-09 05:31 279 22.2
2020-Jul-09 05:16 192 0 gusting 2 22.2
2020-Jul-09 05:01 199 0 gusting 2 22.2
2020-Jul-09 04:46 240 0 gusting 4 22.2
2020-Jul-09 04:31 189 0 gusting 4 22.2
2020-Jul-09 04:15 186 22.2
2020-Jul-09 04:01 254 0 gusting 3 22.2
2020-Jul-09 03:46 228 22.2
2020-Jul-09 03:30 131 1 gusting 4 22.2
2020-Jul-09 03:16 055 22.2
2020-Jul-09 03:01 152 22.2
2020-Jul-09 02:45 231 22.2
2020-Jul-09 02:30 208 22.2
2020-Jul-09 02:15 207 22.2
2020-Jul-09 02:01 171 22.2
2020-Jul-09 01:46 194 22.2
2020-Jul-09 01:30 245 22.2
2020-Jul-09 01:16 173 22.2
2020-Jul-09 01:00 223 0 gusting 4 22.2
2020-Jul-09 00:46 171 22.8
2020-Jul-09 00:30 254 22.8
2020-Jul-09 00:15 173 0 gusting 4 23.3
2020-Jul-09 00:00 141 23.3
2020-Jul-08 23:46 184 23.3
2020-Jul-08 23:31 334 0 gusting 2 23.9
2020-Jul-08 23:16 202 0 gusting 3 23.9
2020-Jul-08 23:00 193 23.9
2020-Jul-08 22:45 224 0 gusting 4 23.9
2020-Jul-08 22:30 171 0 gusting 2 23.9
2020-Jul-08 22:15 245 23.9
2020-Jul-08 22:00 173 23.9
2020-Jul-08 21:45 280 0 gusting 5 23.9
2020-Jul-08 21:30 238 2 gusting 7 24.4
2020-Jul-08 21:15 238 3 gusting 7 24.4
2020-Jul-08 21:01 275 4 gusting 10 25.0
2020-Jul-08 20:45 224 1 gusting 7 24.4
2020-Jul-08 20:30 257 0 gusting 8 25.0
2020-Jul-08 20:15 179 0 gusting 7 25.0
2020-Jul-08 20:00 093 1 gusting 7 25.0
2020-Jul-08 19:45 264 2 gusting 6 25.6
2020-Jul-08 19:30 214 0 gusting 9 26.1
2020-Jul-08 19:15 194 1 gusting 8 26.1
2020-Jul-08 19:00 066 2 gusting 13 26.7
2020-Jul-08 18:46 184 3 gusting 13 26.1
2020-Jul-08 18:31 209 3 gusting 12 27.2
2020-Jul-08 18:16 174 2 gusting 9 26.7
2020-Jul-08 18:01 201 2 gusting 12 26.7
2020-Jul-08 17:46 234 2 gusting 8 26.7
2020-Jul-08 17:32 164 2 gusting 8 26.1
2020-Jul-08 17:17 178 2 gusting 9 26.7
2020-Jul-08 17:02 274 2 gusting 8 26.7
2020-Jul-08 16:46 191 6 gusting 8 26.7
2020-Jul-08 16:31 120 4 gusting 8 26.7
2020-Jul-08 16:16 196 1 gusting 10 26.1
2020-Jul-08 16:01 235 3 gusting 7 26.1
2020-Jul-08 15:45 269 0 gusting 6 26.1
2020-Jul-08 15:30 139 2 gusting 9 25.6
2020-Jul-08 15:15 229 2 gusting 7 25.0
2020-Jul-08 15:00 195 1 gusting 6 23.9
2020-Jul-08 14:45 170 1 gusting 5 23.9
2020-Jul-08 14:30 136 0 gusting 5 23.3
2020-Jul-08 14:16 238 2 gusting 6 22.8
2020-Jul-08 14:01 195 22.8
2020-Jul-08 13:45 225 22.2
2020-Jul-08 13:30 225 0 gusting 4 22.2
2020-Jul-08 13:15 200 22.2
2020-Jul-08 13:00 198 0 gusting 3 21.7
2020-Jul-08 12:45 178 0 gusting 3 21.7
2020-Jul-08 12:30 155 21.7
2020-Jul-08 12:15 203 0 gusting 5 21.7
2020-Jul-08 12:00 148 0 gusting 4 21.7
2020-Jul-08 11:30 192 0 gusting 6 21.1
2020-Jul-08 11:15 122 21.1
2020-Jul-08 11:00 129 21.1
2020-Jul-08 10:45 152 0 gusting 4 21.1
2020-Jul-08 10:32 167 21.1